Volver al catálogo

TITAN 3C TRANSTAGE DEB

LostHEO
NORAD 28817·DEBRIS·🇺🇸 United States

Lanzado Dec 21, 1965 desde Cape Canaveral Space Force Station

Loading…

Próximos Pases (próximas 24 horas)

TLE

ObsoletoSource: Space-Track

Época: May 5, 2024, 19:57 UTC

1 28817U 65108CE  24126.83181932  .00006295  00000-0  61157-2 0  9990
2 28817  26.3532 348.0334 6241564 216.8832  76.9983  3.60221241277641

Sigue TITAN 3C TRANSTAGE DEB en tiempo real con AllMySat

Download on the App Store